GAOFEN 5

Last updated on Thu Feb 24 2022 00:02:25 GMT+0000 (Coordinated Universal Time)

1 43461U 18043A 22054.56410931 .00000163 00000+0 45576-4 0 9996 2 43461 98.2596 355.8207 0000808 319.5809 40.5329 14.57895646202068

Satellite not in orbit

GAOFEN 5